Location: Lake Runnemede Observatory
(43.4843°N, 72.3851°W)
Time: 17:40:10
(UTC-04:00)

Amateur Radio Satellites - All Passes

Search period start: 29 April 2016 17:10
Search period end: 30 April 2016 17:10
Location: Lake Runnemede Observatory, 43.4843°N, 72.3851°W

Satellite Date Start Highest point End Downlink Frequencies (MHz)
Time Altitude Azimuth
AUBIESAT-1 29 Apr 17:12:51 17:15:00 13° 55° (NE) 17:17:07 437.475
PCSat 29 Apr 17:19:32 17:24:54 60° 304° (NW) 17:30:18 145.827
GOMX 1 29 Apr 17:19:35 17:21:56 13° 57° (ENE) 17:24:19 467.674
BRITE-PL 29 Apr 17:24:30 17:28:25 26° 64° (ENE) 17:32:36 437.365/2234.400
NOAA 18 29 Apr 17:25:22 17:30:35 45° 68° (ENE) 17:35:49 137.9125
LilacSat-2 29 Apr 17:26:44 17:29:44 21° 67° (ENE) 17:32:44 437.200
CUTE-I 29 Apr 17:44:34 17:49:39 47° 69° (ENE) 17:54:44 437.470
Cosmos 2491 29 Apr 17:44:37 17:53:04 47° 73° (ENE) 18:01:25 435.465 / 435.565
CUBESAT XI-V 29 Apr 17:46:50 17:51:04 33° 96° (E) 17:55:17 437.345
MOZHAYETS 4 29 Apr 17:49:26 17:53:23 29° 292° (WNW) 17:57:19
YUBILEINY 29 Apr 18:01:34 18:07:54 23° 79° (E) 18:14:12 435.215
SO-50 29 Apr 18:04:18 18:08:02 24° 248° (WSW) 18:11:39 436.795
KKS-1 29 Apr 18:15:30 18:17:09 12° 301° (WNW) 18:18:48 437.445
M-CUBED/EXP-1 PRIME 29 Apr 18:22:06 18:26:47 67° 69° (ENE) 18:31:29 437.505
Cubesat XI-IV 29 Apr 18:27:28 18:32:48 75° 257° (WSW) 18:38:09 437.490
NOAA 15 29 Apr 18:39:38 18:44:32 39° 262° (W) 18:49:28 137.62
STARS 29 Apr 18:42:31 18:43:56 11° 301° (WNW) 18:45:21 437.465
AUBIESAT-1 29 Apr 18:44:09 18:48:49 89° 246° (WSW) 18:53:28 437.475
CUTE 1.7 + AOD 2 29 Apr 18:44:38 18:45:36 11° 61° (ENE) 18:46:33 437.475
CINEMA 3 29 Apr 18:44:45 18:47:33 15° 61° (ENE) 18:50:21 145.822/145.860
HO-68 29 Apr 18:52:31 18:58:38 32° 60° (ENE) 19:04:46 435.675
GOMX 1 29 Apr 18:54:12 18:59:07 90° 77° (ENE) 19:04:25 467.674
LilacSat-2 29 Apr 19:00:27 19:03:53 29° 264° (W) 19:07:20 437.200
BEESAT 3 29 Apr 19:01:59 19:05:22 28° 115° (ESE) 19:08:46 437.485
BRITE-PL 29 Apr 19:02:18 19:06:40 38° 264° (W) 19:11:26 437.365/2234.400
BEESAT 2 29 Apr 19:02:59 19:05:38 17° 111° (ESE) 19:08:17 435.950
PCSat 29 Apr 19:06:47 19:09:28 14° 326° (NW) 19:12:10 145.827
NOAA 18 29 Apr 19:06:51 19:11:25 26° 265° (W) 19:16:01 137.9125
DOVE 4 29 Apr 19:08:48 19:13:47 66° 73° (ENE) 19:19:00 437.250
STRAND 1 29 Apr 19:12:31 19:16:31 23° 93° (E) 19:20:30 437.568
SEEDS 29 Apr 19:16:38 19:19:23 17° 65° (ENE) 19:22:07 437.485
CUBESAT XI-V 29 Apr 19:24:22 19:28:20 28° 293° (WNW) 19:32:19 437.345
CUTE-I 29 Apr 19:25:42 19:29:55 24° 267° (W) 19:34:09 437.470
COMPASS 1 29 Apr 19:27:01 19:29:35 16° 64° (ENE) 19:32:08 437.405
Cosmos 2491 29 Apr 19:41:44 19:49:47 41° 274° (W) 19:57:46 435.465 / 435.565
CANX-2 29 Apr 19:43:14 19:47:18 49° 73° (ENE) 19:51:23 2200.000
Oscar 11 29 Apr 19:51:19 19:52:21 11° 60° (ENE) 19:53:22 145.826/435.025
YUBILEINY 29 Apr 19:54:56 20:03:41 78° 279° (W) 20:12:27 435.215
CUBEBUG 2 29 Apr 19:55:30 19:59:15 24° 66° (ENE) 20:02:58 437.445
UWE-3 29 Apr 19:56:38 19:59:40 17° 64° (ENE) 20:02:39 435.000/436.395/437.385
FUNcube-1 29 Apr 19:57:21 19:58:38 11° 60° (ENE) 19:59:54 145.935
Cosmos 2504 29 Apr 19:59:01 20:05:04 29° 85° (E) 20:11:00 435.465 / 435.565
M-CUBED/EXP-1 PRIME 29 Apr 19:59:02 20:01:42 15° 265° (W) 20:04:23 437.505
AAUSAT CUBESAT 2 29 Apr 20:00:20 20:03:53 28° 69° (ENE) 20:07:26 437.432
AO-85 29 Apr 20:06:21 20:06:49 10° 23° (NNE) 20:07:16 145.980
CUTE 1.7 + AOD 2 29 Apr 20:16:35 20:20:48 80° 259° (W) 20:25:02 437.475
CINEMA 3 29 Apr 20:19:02 20:24:01 77° 258° (WSW) 20:29:05 145.822/145.860
AUBIESAT-1 29 Apr 20:23:23 20:23:50 10° 267° (W) 20:24:17 437.475
ZACube-1 29 Apr 20:34:40 20:38:30 27° 68° (ENE) 20:42:17 437.345
GOMX 1 29 Apr 20:36:41 20:38:02 11° 275° (W) 20:39:25 467.674
HO-68 29 Apr 20:39:00 20:46:00 56° 259° (WSW) 20:53:02 435.675
BEESAT 2 29 Apr 20:39:17 20:43:08 46° 309° (NW) 20:47:01 435.950
BEESAT 3 29 Apr 20:39:31 20:43:01 30° 313° (NW) 20:46:33 437.485
PRISM 29 Apr 20:48:28 20:52:25 41° 99° (E) 20:56:21 437.425
DOVE 4 29 Apr 20:48:53 20:51:59 16° 272° (W) 20:55:10 437.250
SEEDS 29 Apr 20:50:45 20:54:45 44° 261° (W) 20:58:46 437.485
STRAND 1 29 Apr 20:51:03 20:55:55 46° 290° (WNW) 21:00:46 437.568
COMPASS 1 29 Apr 21:00:48 21:04:47 47° 261° (W) 21:08:48 437.405
CANX-2 29 Apr 21:21:01 21:23:27 15° 269° (W) 21:25:53 2200.000
RS-15 29 Apr 21:21:01 21:30:46 36° 105° (ESE) 21:40:55 29.354- 29.394
Oscar 11 29 Apr 21:23:30 21:27:49 83° 258° (WSW) 21:32:10 145.826/435.025
FUNcube-1 29 Apr 21:29:40 21:34:12 87° 253° (WSW) 21:38:43 145.935
UWE-3 29 Apr 21:31:07 21:35:42 56° 260° (W) 21:40:15 435.000/436.395/437.385
CUBEBUG 2 29 Apr 21:31:09 21:35:38 41° 262° (W) 21:40:06 437.445
AAUSAT CUBESAT 2 29 Apr 21:35:59 21:39:22 24° 265° (W) 21:42:46 437.432
AIST 2 29 Apr 21:41:18 21:45:22 59° 121° (ESE) 21:49:28 435.215
DELFI C3 29 Apr 21:42:47 21:46:43 80° 76° (ENE) 21:50:41 145.870
AO-85 29 Apr 21:44:17 21:48:51 37° 46° (NE) 21:53:01 145.980
Cosmos 2504 29 Apr 21:50:57 21:58:03 51° 284° (WNW) 22:05:02 435.465 / 435.565
YUBILEINY 29 Apr 21:56:42 22:02:05 17° 302° (WNW) 22:07:29 435.215
TIGRISAT 29 Apr 22:07:03 22:08:55 12° 89° (E) 22:10:46 435.000
HUMSAT D 29 Apr 22:08:33 22:12:47 69° 74° (ENE) 22:16:58 437.325/437.525
ZACube-1 29 Apr 22:10:37 22:14:41 31° 264° (W) 22:18:43 437.345
VELOX 1 29 Apr 22:19:55 22:22:30 15° 62° (ENE) 22:25:05 145.980
50 SAT 29 Apr 22:22:53 22:24:53 14° 65° (ENE) 22:26:53 437.505
PRISM 29 Apr 22:24:31 22:27:27 19° 295° (WNW) 22:30:22 437.425
DX 1 29 Apr 22:28:53 22:31:42 17° 63° (ENE) 22:34:31 434.975-435.025
ANTELSAT 29 Apr 22:29:16 22:32:47 23° 94° (E) 22:36:11 437.575/2403.000
UKube-1 29 Apr 22:41:41 22:44:42 19° 64° (ENE) 22:47:43 .
AISAT 29 Apr 22:49:54 22:53:48 31° 68° (ENE) 22:57:44 437.250
ESTCUBE 1 29 Apr 22:53:47 22:58:00 43° 71° (ENE) 23:02:15 437.505/2401.250
QB50P2 29 Apr 23:07:55 23:09:44 12° 90° (E) 23:11:32 145.880/145.840
POLYITAN 1 29 Apr 23:09:59 23:11:50 13° 90° (E) 23:13:41 437.675
DUCHIFAT 1 29 Apr 23:12:43 23:14:19 12° 89° (E) 23:15:55 145.980
POPSAT HIP 1 29 Apr 23:13:21 23:15:27 13° 90° (E) 23:17:32 437.405
QB50P1 29 Apr 23:16:38 23:19:05 15° 91° (E) 23:21:31 145.935-145.965
SPROUT 29 Apr 23:17:47 23:21:04 22° 66° (ENE) 23:24:23 437.525
AIST 2 29 Apr 23:21:15 23:24:14 19° 319° (NW) 23:27:12 435.215
UNISAT 6 29 Apr 23:22:53 23:27:17 88° 99° (E) 23:31:34 437.425
AO-85 29 Apr 23:25:06 23:29:12 29° 247° (WSW) 23:32:58 145.980
RS-15 29 Apr 23:30:57 23:42:16 71° 309° (NW) 23:54:19 29.354- 29.394
CUBEBUG 1 29 Apr 23:36:05 23:40:27 86° 72° (ENE) 23:44:53 437.445
TIGRISAT 29 Apr 23:41:44 23:46:03 61° 287° (WNW) 23:50:16 435.000
GONETS M04 29 Apr 23:44:46 23:51:26 25° 80° (E) 23:58:07
HUMSAT D 29 Apr 23:47:47 23:48:51 11° 271° (W) 23:49:56 437.325/437.525
NANOSAT C BR1 29 Apr 23:52:21 23:56:14 34° 97° (E) 00:00:05 145.865
VELOX 1 29 Apr 23:54:07 23:58:29 59° 259° (W) 00:02:54 145.980
50 SAT 29 Apr 23:54:51 23:58:21 41° 261° (W) 00:01:51 437.505
AIST 1 29 Apr 23:54:56 23:57:13 14° 84° (E) 23:59:29
DX 1 30 Apr 00:03:15 00:07:29 51° 260° (W) 00:11:46 434.975-435.025
TISAT 1 30 Apr 00:04:51 00:08:06 22° 66° (ENE) 00:11:21 437.305
ANTELSAT 30 Apr 00:05:38 00:09:34 33° 291° (WNW) 00:13:24 437.575/2403.000
BUGSAT 1 30 Apr 00:07:49 00:11:15 24° 94° (E) 00:14:38 437.445
UKube-1 30 Apr 00:16:18 00:20:26 44° 261° (W) 00:24:36 .
Cosmos 2499 30 Apr 00:17:48 00:21:53 16° 79° (ENE) 00:25:57 435.465 / 435.565
PCSat 30 Apr 00:23:23 00:27:53 25° 45° (NE) 00:32:21 145.827
AISAT 30 Apr 00:26:32 00:30:16 26° 265° (W) 00:34:04 437.250
ESTCUBE 1 30 Apr 00:31:49 00:35:01 19° 267° (W) 00:38:14 437.505/2401.250
BEESAT 30 Apr 00:40:06 00:41:52 12° 58° (ENE) 00:43:37 436.000
QB50P2 30 Apr 00:41:43 00:45:56 60° 286° (WNW) 00:50:05 145.880/145.840
POLYITAN 1 30 Apr 00:43:51 00:48:03 59° 287° (WNW) 00:52:11 437.675
DUCHIFAT 1 30 Apr 00:46:14 00:50:27 62° 286° (WNW) 00:54:35 145.980
POPSAT HIP 1 30 Apr 00:47:25 00:51:36 56° 287° (WNW) 00:55:44 437.405
QB50P1 30 Apr 00:51:03 00:55:10 50° 288° (WNW) 00:59:15 145.935-145.965
SPROUT 30 Apr 00:52:49 00:56:49 37° 263° (W) 01:00:51 437.525
JAS-2 30 Apr 00:53:28 01:00:05 30° 92° (E) 01:06:44 435.910
O/OREOS (USA 219) 30 Apr 00:57:25 01:01:47 45° 62° (ENE) 01:06:06 437.305
UNISAT 6 30 Apr 01:02:48 01:03:16 10° 301° (WNW) 01:03:43 437.425
NANOSAT C BR1 30 Apr 01:28:29 01:31:47 22° 294° (WNW) 01:35:03 145.865
ITUPSAT 1 30 Apr 01:29:51 01:34:06 33° 68° (ENE) 01:38:22 437.325
AIST 1 30 Apr 01:30:08 01:34:19 51° 282° (WNW) 01:38:34
Gurwin Techsat 1B 30 Apr 01:34:32 01:36:10 11° 87° (E) 01:37:49 435.225
GONETS M04 30 Apr 01:38:30 01:47:21 74° 280° (W) 01:56:14
TISAT 1 30 Apr 01:39:36 01:43:32 36° 263° (W) 01:47:29 437.305
SWISSCUBE 30 Apr 01:40:47 01:45:20 47° 71° (ENE) 01:49:54 437.505
CUSAT 1 30 Apr 01:42:05 01:48:18 36° 72° (ENE) 01:55:25 437.405
BUGSAT 1 30 Apr 01:42:55 01:46:40 31° 291° (WNW) 01:50:20 437.445
RS-15 30 Apr 01:47:20 01:57:22 31° 339° (NNW) 02:07:50 29.354- 29.394
DANDE 30 Apr 01:54:28 01:59:11 22° 70° (ENE) 02:04:41 436.750
KKS-1 30 Apr 02:03:53 02:04:13 10° 58° (ENE) 02:04:34 437.445
Oscar 19 30 Apr 02:04:34 02:09:41 54° 100° (E) 02:14:45 437.125/150
PCSat 30 Apr 02:06:19 02:11:39 58° 244° (WSW) 02:16:56 145.827
Cosmos 2499 30 Apr 02:06:50 02:13:58 83° 278° (W) 02:21:06 435.465 / 435.565
BEESAT 30 Apr 02:14:10 02:18:55 89° 253° (WSW) 02:23:43 436.000
O/OREOS (USA 219) 30 Apr 02:37:41 02:40:50 19° 259° (W) 02:43:57 437.305
JAS-2 30 Apr 02:37:52 02:45:26 64° 290° (WNW) 02:53:10 435.910
ITUPSAT 1 30 Apr 03:07:53 03:11:58 28° 265° (W) 03:16:02 437.325
Gurwin Techsat 1B 30 Apr 03:11:30 03:16:51 89° 106° (ESE) 03:22:10 435.225
MOZHAYETS 4 30 Apr 03:15:13 03:19:16 32° 69° (ENE) 03:23:20
ITAMSAT 1 30 Apr 03:15:51 03:20:46 42° 98° (E) 03:25:40 435.822/435.867
BEESAT 3 30 Apr 03:17:58 03:21:22 27° 46° (NE) 03:24:45 437.485
BEESAT 2 30 Apr 03:19:07 03:22:02 19° 42° (NE) 03:24:55 435.950
SWISSCUBE 30 Apr 03:19:59 03:23:22 19° 267° (W) 03:26:47 437.505
CUSAT 1 30 Apr 03:23:56 03:30:33 51° 266° (W) 03:38:09 437.405
KKS-1 30 Apr 03:35:33 03:40:02 85° 76° (ENE) 03:44:33 437.445
DANDE 30 Apr 03:36:09 03:42:16 73° 263° (W) 03:50:00 436.750
GONETS M04 30 Apr 03:40:41 03:45:54 17° 303° (WNW) 03:51:09
Oscar 19 30 Apr 03:44:45 03:48:37 22° 298° (WNW) 03:52:29 437.125/150
STARS 30 Apr 04:01:09 04:05:36 84° 75° (ENE) 04:10:05 437.465
Cosmos 2499 30 Apr 04:04:33 04:08:19 15° 300° (WNW) 04:12:05 435.465 / 435.565
RS-15 30 Apr 04:04:56 04:14:56 28° 14° (NNE) 04:25:07 29.354- 29.394
YUBILEINY 30 Apr 04:10:24 04:13:08 12° 52° (NE) 04:15:52 435.215
AO-7 30 Apr 04:20:09 04:28:16 52° 102° (ESE) 04:36:20 29.400- 29.500
JAS-2 30 Apr 04:25:04 04:29:05 15° 308° (NW) 04:33:10 435.910
AIST 2 30 Apr 04:25:39 04:26:15 10° 32° (NNE) 04:26:51 435.215
CUBESAT XI-V 30 Apr 04:51:14 04:55:24 36° 70° (ENE) 04:59:37 437.345
MOZHAYETS 4 30 Apr 04:52:35 04:56:27 27° 265° (W) 05:00:19
HORYU 2 30 Apr 04:53:19 04:57:04 26° 95° (E) 05:00:47 437.375
Gurwin Techsat 1B 30 Apr 04:53:24 04:56:03 14° 303° (WNW) 04:58:41 435.225
BEESAT 3 30 Apr 04:55:34 04:59:06 32° 244° (WSW) 05:02:36 437.485
ITAMSAT 1 30 Apr 04:55:46 05:00:02 26° 296° (WNW) 05:04:17 435.822/435.867
BEESAT 2 30 Apr 04:56:17 05:00:12 53° 240° (WSW) 05:04:03 435.950
DANDE 30 Apr 05:21:57 05:24:33 13° 276° (W) 05:27:21 436.750
NOAA 18 30 Apr 05:47:22 05:50:43 16° 91° (E) 05:54:03 137.9125
Cosmos 2504 30 Apr 05:51:04 05:52:41 11° 56° (NE) 05:54:19 435.465 / 435.565
CUTE-I 30 Apr 06:01:29 06:04:50 17° 91° (E) 06:08:09 437.470
AIST 2 30 Apr 06:01:35 06:05:40 55° 53° (NE) 06:09:44 435.215
YUBILEINY 30 Apr 06:03:42 06:12:15 57° 76° (ENE) 06:20:46 435.215
AO-7 30 Apr 06:13:18 06:20:48 40° 301° (WNW) 06:28:20 29.400- 29.500
RS-15 30 Apr 06:18:49 06:30:52 58° 45° (NE) 06:42:58 29.354- 29.394
CUBESAT XI-V 30 Apr 06:29:09 06:32:52 24° 266° (W) 06:36:37 437.345
STRAND 1 30 Apr 06:29:20 06:33:58 37° 68° (ENE) 06:38:39 437.568
HORYU 2 30 Apr 06:29:44 06:33:37 31° 292° (WNW) 06:37:29 437.375
LilacSat-2 30 Apr 06:32:39 06:35:53 25° 95° (E) 06:39:04 437.200
SO-50 30 Apr 06:41:50 06:43:10 11° 106° (ESE) 06:44:30 436.795
Cubesat XI-IV 30 Apr 06:43:39 06:48:39 40° 98° (E) 06:53:36 437.490
Cosmos 2491 30 Apr 06:46:59 06:55:22 51° 89° (E) 07:03:48 435.465 / 435.565
NOAA 15 30 Apr 06:52:59 06:58:19 72° 103° (ESE) 07:03:38 137.62
GOMX 1 30 Apr 06:55:16 07:00:00 29° 93° (E) 07:04:35 467.674
BRITE-PL 30 Apr 07:04:48 07:10:30 67° 101° (E) 07:16:08 437.365/2234.400
DOVE 4 30 Apr 07:07:56 07:11:29 18° 89° (E) 07:14:54 437.250
NOAA 18 30 Apr 07:26:27 07:31:54 70° 288° (WNW) 07:37:19 137.9125
M-CUBED/EXP-1 PRIME 30 Apr 07:35:56 07:39:44 37° 102° (ESE) 07:43:13 437.505
PRISM 30 Apr 07:39:05 07:42:46 34° 69° (ENE) 07:46:29 437.425
CUTE-I 30 Apr 07:40:04 07:45:21 66° 288° (WNW) 07:50:36 437.470
Cosmos 2504 30 Apr 07:40:22 07:47:45 59° 78° (ENE) 07:55:39 435.465 / 435.565
AIST 2 30 Apr 07:41:16 07:43:44 15° 250° (WSW) 07:46:10 435.215
AUBIESAT-1 30 Apr 07:57:16 08:01:12 54° 105° (ESE) 08:04:49 437.475
YUBILEINY 30 Apr 08:01:10 08:08:36 33° 276° (W) 08:16:02 435.215
CUTE 1.7 + AOD 2 30 Apr 08:01:29 08:04:06 16° 91° (E) 08:06:43 437.475
HO-68 30 Apr 08:05:44 08:11:42 28° 94° (E) 08:17:38 435.675
LilacSat-2 30 Apr 08:07:01 08:10:06 23° 292° (WNW) 08:13:08 437.200
STRAND 1 30 Apr 08:08:52 08:13:13 28° 265° (W) 08:17:35 437.568
CINEMA 3 30 Apr 08:13:42 08:17:30 24° 93° (E) 08:21:10 145.822/145.860
SO-50 30 Apr 08:17:58 08:22:53 84° 123° (ESE) 08:27:49 436.795
ISS 30 Apr 08:20:43 08:23:41 33° 139° (SE) 08:26:41 145.825
Cubesat XI-IV 30 Apr 08:24:03 08:28:33 29° 295° (WNW) 08:33:04 437.490
RS-15 30 Apr 08:31:45 08:43:22 52° 249° (WSW) 08:54:57 29.354- 29.394
GOMX 1 30 Apr 08:33:01 08:38:10 41° 291° (WNW) 08:43:07 467.674
SEEDS 30 Apr 08:33:38 08:37:10 26° 95° (E) 08:40:40 437.485
NOAA 15 30 Apr 08:34:08 08:37:30 17° 301° (WNW) 08:40:52 137.62
COMPASS 1 30 Apr 08:42:46 08:46:09 24° 94° (E) 08:49:31 437.405
BRITE-PL 30 Apr 08:44:20 08:48:24 21° 298° (WNW) 08:52:28 437.365/2234.400
Cosmos 2491 30 Apr 08:44:23 08:52:26 38° 290° (WNW) 09:00:33 435.465 / 435.565
DOVE 4 30 Apr 08:44:27 08:49:34 57° 288° (WNW) 08:54:27 437.250
UNISAT 6 30 Apr 08:49:34 08:50:50 11° 59° (ENE) 08:52:06 437.425
CANX-2 30 Apr 09:02:35 09:06:50 86° 107° (ESE) 09:11:03 2200.000
TIGRISAT 30 Apr 09:06:32 09:09:16 16° 62° (ENE) 09:11:58 435.000
NOAA 18 30 Apr 09:10:04 09:11:35 11° 306° (NW) 09:13:04 137.9125
Oscar 11 30 Apr 09:10:39 09:13:24 16° 91° (E) 09:16:07 145.826/435.025
M-CUBED/EXP-1 PRIME 30 Apr 09:11:02 09:14:00 20° 302° (WNW) 09:16:48 437.505
PRISM 30 Apr 09:15:08 09:18:11 20° 266° (W) 09:21:15 437.425
AAUSAT CUBESAT 2 30 Apr 09:16:12 09:20:11 44° 99° (E) 09:24:09 437.432
FUNcube-1 30 Apr 09:18:02 09:20:35 15° 91° (E) 09:23:05 145.935
UWE-3 30 Apr 09:20:16 09:23:53 26° 94° (E) 09:27:25 435.000/436.395/437.385
CUBEBUG 2 30 Apr 09:21:02 09:25:08 38° 97° (E) 09:29:05 437.445
ANTELSAT 30 Apr 09:28:55 09:32:46 26° 67° (ENE) 09:36:35 437.575/2403.000
AUBIESAT-1 30 Apr 09:33:01 09:35:11 14° 304° (NW) 09:37:17 437.475
Cosmos 2504 30 Apr 09:34:34 09:40:40 28° 276° (W) 09:47:05 435.465 / 435.565
CUTE 1.7 + AOD 2 30 Apr 09:36:10 09:40:11 46° 288° (WNW) 09:44:13 437.475
CINEMA 3 30 Apr 09:50:25 09:54:44 36° 291° (WNW) 09:58:52 145.822/145.860
HO-68 30 Apr 09:52:49 09:59:49 60° 292° (WNW) 10:06:48 435.675
GONETS M04 30 Apr 09:53:36 09:57:07 13° 53° (NE) 10:00:38
ISS 30 Apr 09:57:02 10:00:07 38° 337° (NNW) 10:03:13 145.825
ZACube-1 30 Apr 09:57:30 10:01:34 44° 98° (E) 10:05:33 437.345
SO-50 30 Apr 10:00:30 10:04:00 19° 323° (NW) 10:07:30 436.795
QB50P2 30 Apr 10:02:16 10:04:02 12° 61° (ENE) 10:05:49 145.880/145.840
POLYITAN 1 30 Apr 10:04:17 10:06:09 13° 61° (ENE) 10:08:00 437.675
DUCHIFAT 1 30 Apr 10:06:24 10:07:56 12° 61° (ENE) 10:09:27 145.980
POPSAT HIP 1 30 Apr 10:07:31 10:09:33 13° 61° (ENE) 10:11:35 437.405
SEEDS 30 Apr 10:09:16 10:12:49 28° 292° (WNW) 10:16:23 437.485
QB50P1 30 Apr 10:10:42 10:13:02 14° 62° (ENE) 10:15:22 145.935-145.965
COMPASS 1 30 Apr 10:18:05 10:21:43 30° 291° (WNW) 10:25:22 437.405
UNISAT 6 30 Apr 10:22:09 10:26:50 88° 80° (E) 10:31:29 437.425
TIGRISAT 30 Apr 10:40:49 10:45:28 63° 259° (W) 10:50:03 435.000
NANOSAT C BR1 30 Apr 10:45:33 10:49:17 30° 69° (ENE) 10:53:03 145.865
Oscar 11 30 Apr 10:45:39 10:49:47 46° 288° (WNW) 10:53:54 145.826/435.025
AAUSAT CUBESAT 2 30 Apr 10:52:39 10:55:20 17° 295° (WNW) 10:58:02 437.432
FUNcube-1 30 Apr 10:53:03 10:57:07 46° 288° (WNW) 11:01:05 145.935
DELFI C3 30 Apr 10:54:05 10:58:03 71° 286° (WNW) 11:02:01 145.870
UWE-3 30 Apr 10:56:38 11:00:20 28° 292° (WNW) 11:03:57 435.000/436.395/437.385
CUBEBUG 2 30 Apr 10:58:14 11:01:30 21° 295° (WNW) 11:04:42 437.445
BUGSAT 1 30 Apr 10:58:53 11:02:02 21° 65° (ENE) 11:05:12 437.445
ANTELSAT 30 Apr 11:05:05 11:09:20 34° 263° (W) 11:13:34 437.575/2403.000
JAS-2 30 Apr 11:10:28 11:13:15 13° 50° (NE) 11:16:11 435.910
50 SAT 30 Apr 11:24:36 11:26:39 14° 92° (E) 11:28:41 437.505
CUBEBUG 1 30 Apr 11:24:53 11:27:26 15° 91° (E) 11:29:58 437.445
HUMSAT D 30 Apr 11:26:24 11:30:29 72° 286° (WNW) 11:34:33 437.325/437.525
ZACube-1 30 Apr 11:34:42 11:37:31 17° 296° (WNW) 11:40:17 437.345
ISS 30 Apr 11:34:45 11:37:13 19° 356° (N) 11:39:41 145.825
QB50P2 30 Apr 11:34:59 11:39:16 71° 257° (WSW) 11:43:34 145.880/145.840
AIST 1 30 Apr 11:35:47 11:39:59 42° 77° (ENE) 11:44:10
POLYITAN 1 30 Apr 11:37:06 11:41:23 70° 258° (WSW) 11:45:42 437.675
DUCHIFAT 1 30 Apr 11:38:46 11:43:01 75° 258° (WSW) 11:47:19 145.980
POPSAT HIP 1 30 Apr 11:40:32 11:44:48 66° 259° (W) 11:49:06 437.405
HO-68 30 Apr 11:43:10 11:46:06 13° 313° (NW) 11:49:02 435.675
VELOX 1 30 Apr 11:43:32 11:47:09 24° 94° (E) 11:50:44 145.980
QB50P1 30 Apr 11:44:07 11:48:20 59° 259° (W) 11:52:35 145.935-145.965
Oscar 19 30 Apr 11:46:53 11:49:06 13° 57° (ENE) 11:51:20 437.125/150
GONETS M04 30 Apr 11:47:29 11:56:10 60° 77° (ENE) 12:04:44
DX 1 30 Apr 11:50:35 11:54:12 24° 95° (E) 11:57:47 434.975-435.025
Cosmos 2499 30 Apr 11:55:17 12:02:15 37° 72° (ENE) 12:09:40 435.465 / 435.565
UKube-1 30 Apr 12:02:24 12:06:06 26° 96° (E) 12:09:46 .
AO-85 30 Apr 12:03:07 12:04:09 11° 104° (ESE) 12:05:11 145.980
PHONESAT 2.4 30 Apr 12:03:16 12:06:05 29° 163° (SSE) 12:08:53 2401.200-2431.200
AISAT 30 Apr 12:14:40 12:19:04 52° 100° (E) 12:23:25 437.250
ESTCUBE 1 30 Apr 12:21:23 12:25:56 82° 105° (ESE) 12:30:28 437.505/2401.250
NANOSAT C BR1 30 Apr 12:21:30 12:25:02 25° 265° (W) 12:28:35 145.865
BUGSAT 1 30 Apr 12:33:14 12:37:10 38° 262° (W) 12:41:09 437.445
SPROUT 30 Apr 12:37:31 12:41:26 33° 97° (E) 12:45:18 437.525
JAS-2 30 Apr 12:51:05 12:56:53 70° 72° (ENE) 13:03:33 435.910
Gurwin Techsat 1B 30 Apr 12:55:33 12:59:35 23° 62° (ENE) 13:03:38 435.225
50 SAT 30 Apr 12:57:13 13:00:38 38° 288° (WNW) 13:04:02 437.505
CUBEBUG 1 30 Apr 12:59:42 13:04:04 55° 287° (WNW) 13:08:23 437.445
ITAMSAT 1 30 Apr 13:00:20 13:01:28 11° 55° (NE) 13:02:37 435.822/435.867
ISS 30 Apr 13:11:35 13:14:26 27° 17° (NNE) 13:17:16 145.825
AIST 1 30 Apr 13:14:17 13:17:14 18° 274° (W) 13:20:10
VELOX 1 30 Apr 13:19:36 13:23:41 35° 291° (WNW) 13:27:44 145.980
TISAT 1 30 Apr 13:22:19 13:26:04 30° 96° (E) 13:29:48 437.305
Oscar 19 30 Apr 13:22:27 13:27:37 86° 73° (ENE) 13:32:50 437.125/150
DX 1 30 Apr 13:26:29 13:30:26 33° 292° (WNW) 13:34:20 434.975-435.025
AO-7 30 Apr 13:31:30 13:36:55 20° 47° (NE) 13:42:20 29.400- 29.500
AO-85 30 Apr 13:38:20 13:43:47 72° 121° (ESE) 13:49:11 145.980
UKube-1 30 Apr 13:38:20 13:42:07 30° 292° (WNW) 13:45:54 .
PHONESAT 2.4 30 Apr 13:39:36 13:42:41 49° 180° (S) 13:45:46 2401.200-2431.200
SWISSCUBE 30 Apr 13:42:26 13:43:30 11° 88° (E) 13:44:35 437.505
GONETS M04 30 Apr 13:45:06 13:52:25 31° 277° (W) 13:59:40
Cosmos 2499 30 Apr 13:48:16 13:55:28 47° 270° (W) 14:03:11 435.465 / 435.565
AISAT 30 Apr 13:52:12 13:55:08 17° 297° (WNW) 13:58:04 437.250
ESTCUBE 1 30 Apr 14:00:25 14:02:05 12° 300° (WNW) 14:03:46 437.505/2401.250
SPROUT 30 Apr 14:13:47 14:17:13 24° 294° (WNW) 14:20:38 437.525
BEESAT 30 Apr 14:13:50 14:17:27 21° 93° (E) 14:21:02 436.000
Gurwin Techsat 1B 30 Apr 14:34:00 14:39:10 53° 260° (W) 14:44:23 435.225
ITAMSAT 1 30 Apr 14:34:52 14:40:02 73° 73° (ENE) 14:45:12 435.822/435.867
JAS-2 30 Apr 14:38:41 14:42:46 19° 273° (W) 14:47:12 435.910
ISS 30 Apr 14:47:52 14:51:08 69° 215° (SW) 14:54:22 145.825
CUSAT 1 30 Apr 14:50:25 14:52:27 15° 82° (E) 14:54:45 437.405
TISAT 1 30 Apr 14:58:08 15:01:37 25° 293° (WNW) 15:05:03 437.305
Oscar 19 30 Apr 15:05:46 15:07:37 12° 272° (W) 15:09:29 437.125/150
ITUPSAT 1 30 Apr 15:06:10 15:10:57 68° 102° (ESE) 15:15:42 437.325
PCSat 30 Apr 15:08:25 15:11:22 15° 103° (ESE) 15:14:19 145.827
SO-50 30 Apr 15:08:58 15:12:20 19° 37° (NE) 15:15:37 436.795
O/OREOS (USA 219) 30 Apr 15:10:42 15:15:01 42° 107° (ESE) 15:19:21 437.305
PHONESAT 2.4 30 Apr 15:16:27 15:19:18 30° 196° (SSW) 15:22:07 2401.200-2431.200
SWISSCUBE 30 Apr 15:17:07 15:21:55 84° 286° (WNW) 15:26:41 437.505
AO-7 30 Apr 15:20:08 15:28:24 76° 68° (ENE) 15:36:41 29.400- 29.500
AO-85 30 Apr 15:20:24 15:24:49 24° 320° (NW) 15:29:08 145.980
KKS-1 30 Apr 15:26:46 15:29:20 15° 91° (E) 15:31:52 437.445
BEESAT 30 Apr 15:50:55 15:55:25 43° 290° (WNW) 15:59:55 436.000
STARS 30 Apr 15:51:03 15:53:20 14° 91° (E) 15:55:37 437.465
HORYU 2 30 Apr 15:52:22 15:56:15 29° 67° (ENE) 16:00:07 437.375
ITAMSAT 1 30 Apr 16:17:15 16:20:02 14° 270° (W) 16:22:49 435.822/435.867
CUSAT 1 30 Apr 16:31:03 16:34:04 30° 291° (WNW) 16:37:52 437.405
Cubesat XI-IV 30 Apr 16:31:21 16:32:53 11° 55° (NE) 16:34:25 437.490
NOAA 15 30 Apr 16:36:45 16:40:18 19° 60° (ENE) 16:43:54 137.62
BRITE-PL 30 Apr 16:42:35 16:43:56 11° 55° (NE) 16:45:19 437.365/2234.400
MOZHAYETS 4 30 Apr 16:45:22 16:49:55 65° 101° (E) 16:54:27
ITUPSAT 1 30 Apr 16:45:30 16:48:14 15° 300° (WNW) 16:50:58 437.325
PCSat 30 Apr 16:48:37 16:54:02 80° 301° (WNW) 16:59:31 145.827
SO-50 30 Apr 16:48:41 16:53:26 81° 237° (WSW) 16:58:00 436.795
DANDE 30 Apr 16:49:48 16:52:28 42° 286° (WNW) 16:55:43 436.750
O/OREOS (USA 219) 30 Apr 16:50:57 16:54:36 23° 305° (NW) 16:58:16 437.305
SWISSCUBE 30 Apr 16:57:43 16:58:56 11° 303° (WNW) 17:00:09 437.505
